GW0058 Weather Reports


Display with metric or nautical units.
time (UTC)temp
F
wind
direction
speed
MPH
gust
MPH
rain 1hr
in
rain 24hr
in
rain mn
in
humidity
%
barometer
mb
20260906025050 87 139 0.0 4.0 0.00 0.00 0.00 57 1013.6
20260906024553 87 147 1.0 3.0 0.00 0.00 0.00 57 1013.4
20260906024046 87 146 1.0 5.0 0.00 0.00 0.00 57 1013.3
20260906023551 87 164 1.0 5.0 0.00 0.00 0.00 56 1013.3
20260906023056 87 132 2.0 7.0 0.00 0.00 0.00 56 1013.0
20260906022546 88 146 1.0 7.0 0.00 0.00 0.00 55 1013.0
20260906022052 88 146 1.0 7.0 0.00 0.00 0.00 55 1012.9
20260906021607 88 120 1.0 7.0 0.00 0.00 0.00 55 1012.9
20260906021049 88 173 2.0 7.0 0.00 0.00 0.00 54 1012.8
20260906020550 88 143 2.0 7.0 0.00 0.00 0.00 54 1012.8
20260906020107 89 0 3.0 8.0 0.00 0.00 0.00 54 1012.8
20260906015549 89 170 3.0 12.0 0.00 0.00 0.00 53 1012.6
20260906015049 89 131 3.0 12.0 0.00 0.00 0.00 53 1012.6
20260906014554 89 139 3.0 10.0 0.00 0.00 0.00 52 1012.5
20260906014046 89 88 4.0 13.0 0.00 0.00 0.00 51 1012.5
20260906013549 90 106 7.0 13.0 0.00 0.00 0.00 50 1012.4
20260906013107 90 135 4.0 11.0 0.00 0.00 0.00 49 1012.5
20260906012552 90 159 4.0 9.0 0.00 0.00 0.00 48 1012.4
20260906012049 90 174 1.0 6.0 0.00 0.00 0.00 47 1012.4
20260906011605 90 69 0.0 5.0 0.00 0.00 0.00 46 1012.3
20260906011052 91 153 0.0 1.0 0.00 0.00 0.00 44 1012.4
20260906010549 91 0 0.0 1.0 0.00 0.00 0.00 44 1012.4
20260906010057 91 0 0.0 0.0 0.00 0.00 0.00 44 1012.2
20260906005549 91 0 0.0 0.0 0.00 0.00 0.00 44 1012.1
20260906005046 91 0 0.0 1.0 0.00 0.00 0.00 44 1012.1
20260906004610 91 0 0.0 1.0 0.00 0.00 0.00 43 1012.1
20260906004050 91 0 0.0 4.0 0.00 0.00 0.00 44 1012.0
20260906003550 92 0 0.0 4.0 0.00 0.00 0.00 43 1011.9
20260906003103 92 0 0.0 4.0 0.00 0.00 0.00 42 1012.0
20260906002550 92 72 1.0 9.0 0.00 0.00 0.00 42 1012.0
20260906002047 93 134 2.0 9.0 0.00 0.00 0.00 42 1011.9
20260906001553 93 0 0.0 3.0 0.00 0.00 0.00 42 1011.9
20260906001046 93 0 0.0 4.0 0.00 0.00 0.00 42 1012.0
20260906000546 94 0 1.0 5.0 0.00 0.00 0.00 42 1012.1
20260906000106 94 34 2.0 5.0 0.00 0.00 0.00 42 1012.0
20260905235553 94 148 1.0 5.0 0.00 0.00 0.00 41 1012.0
20260905235050 94 150 1.0 4.0 0.00 0.00 0.00 41 1012.1
20260905234559 95 98 1.0 8.0 0.00 0.00 0.00 41 1012.0
20260905234050 95 150 2.0 8.0 0.00 0.00 0.00 40 1012.0
20260905233550 95 174 2.0 7.0 0.00 0.00 0.00 40 1012.0
20260905233059 95 128 3.0 9.0 0.00 0.00 0.00 39 1012.0
20260905232548 96 157 4.0 9.0 0.00 0.00 0.00 40 1012.0
20260905232050 96 59 2.0 6.0 0.00 0.00 0.00 38 1012.0
20260905231603 96 0 2.0 7.0 0.00 0.00 0.00 38 1011.9
20260905231046 96 133 2.0 9.0 0.00 0.00 0.00 38 1011.9
20260905230549 96 202 2.0 9.0 0.00 0.00 0.00 37 1011.9
20260905230059 96 165 2.0 8.0 0.00 0.00 0.00 38 1012.0
20260905225549 96 143 2.0 9.0 0.00 0.00 0.00 37 1011.9
20260905225049 96 235 3.0 9.0 0.00 0.00 0.00 38 1012.0
20260905224555 95 197 3.0 10.0 0.00 0.00 0.00 38 1011.9
20260905224050 96 148 5.0 11.0 0.00 0.00 0.00 37 1011.9
20260905223552 96 157 5.0 11.0 0.00 0.00 0.00 37 1011.9
20260905223101 96 148 3.0 9.0 0.00 0.00 0.00 36 1012.0
20260905222549 97 165 3.0 8.0 0.00 0.00 0.00 36 1012.0
20260905222049 97 155 1.0 9.0 0.00 0.00 0.00 36 1012.0
20260905221553 98 94 1.0 9.0 0.00 0.00 0.00 35 1012.1
20260905221050 96 140 1.0 9.0 0.00 0.00 0.00 37 1012.2
20260905220546 96 139 3.0 9.0 0.00 0.00 0.00 36 1012.2
20260905220052 96 148 3.0 9.0 0.00 0.00 0.00 36 1012.2
20260905215550 96 166 1.0 12.0 0.00 0.00 0.00 36 1012.2
20260905215049 96 169 4.0 12.0 0.00 0.00 0.00 36 1012.3
20260905214601 97 150 4.0 9.0 0.00 0.00 0.00 36 1012.3
20260905214050 96 148 3.0 8.0 0.00 0.00 0.00 37 1012.2
20260905213550 96 355 3.0 9.0 0.00 0.00 0.00 37 1012.3
20260905213053 96 102 4.0 9.0 0.00 0.00 0.00 38 1012.3
20260905212550 95 160 3.0 10.0 0.00 0.00 0.00 38 1012.3
20260905212046 95 168 3.0 10.0 0.00 0.00 0.00 38 1012.3
20260905211556 96 142 4.0 10.0 0.00 0.00 0.00 37 1012.3
20260905211050 96 121 3.0 6.0 0.00 0.00 0.00 38 1012.3
20260905210549 96 217 3.0 7.0 0.00 0.00 0.00 38 1012.4
20260905210118 96 260 3.0 10.0 0.00 0.00 0.00 38 1012.5
20260905205550 96 159 5.0 10.0 0.00 0.00 0.00 38 1012.7
20260905205050 96 248 4.0 8.0 0.00 0.00 0.00 38 1012.7
20260905204602 96 144 3.0 7.0 0.00 0.00 0.00 38 1012.7
20260905204050 98 95 3.0 7.0 0.00 0.00 0.00 38 1012.9
20260905203547 97 88 2.0 9.0 0.00 0.00 0.00 39 1012.9
20260905203054 96 150 3.0 9.0 0.00 0.00 0.00 38 1013.0
20260905202550 96 186 4.0 9.0 0.00 0.00 0.00 38 1013.1
20260905202049 96 149 4.0 13.0 0.00 0.00 0.00 38 1013.1
20260905201552 96 123 4.0 13.0 0.00 0.00 0.00 38 1013.3
20260905201046 96 157 4.0 13.0 0.00 0.00 0.00 39 1013.2
20260905200546 95 159 2.0 10.0 0.00 0.00 0.00 39 1013.3
20260905200107 96 157 3.0 10.0 0.00 0.00 0.00 38 1013.5
20260905195549 96 182 4.0 10.0 0.00 0.00 0.00 38 1013.5
20260905195051 94 144 5.0 10.0 0.00 0.00 0.00 39 1013.6
20260905194609 95 198 2.0 10.0 0.00 0.00 0.00 42 1013.6
20260905194050 95 232 3.0 10.0 0.00 0.00 0.00 39 1013.8
20260905193549 95 132 4.0 10.0 0.00 0.00 0.00 39 1013.9
20260905193056 95 122 2.0 11.0 0.00 0.00 0.00 43 1013.8
20260905192547 94 190 4.0 11.0 0.00 0.00 0.00 44 1013.8
20260905192051 93 327 3.0 10.0 0.00 0.00 0.00 41 1014.0
20260905191556 94 180 2.0 10.0 0.00 0.00 0.00 42 1014.1
20260905191046 93 204 5.0 10.0 0.00 0.00 0.00 44 1014.1
20260905190551 91 144 4.0 9.0 0.00 0.00 0.00 48 1014.3
20260905190056 91 163 1.0 9.0 0.00 0.00 0.00 48 1014.3
20260905185551 93 150 3.0 9.0 0.00 0.00 0.00 47 1014.4
20260905185050 90 38 3.0 8.0 0.00 0.00 0.00 49 1014.5
20260905184621 91 174 2.0 8.0 0.00 0.00 0.00 49 1014.6
20260905184050 93 141 3.0 10.0 0.00 0.00 0.00 46 1014.7
20260905183550 94 0 3.0 12.0 0.00 0.00 0.00 46 1014.7
20260905183055 95 135 4.0 12.0 0.00 0.00 0.00 47 1014.8
20260905182546 94 191 3.0 11.0 0.00 0.00 0.00 47 1014.9
20260905182049 94 167 5.0 11.0 0.00 0.00 0.00 48 1015.0
20260905181602 94 174 4.0 9.0 0.00 0.00 0.00 49 1015.1
20260905181050 93 134 3.0 10.0 0.00 0.00 0.00 49 1015.1
20260905180550 92 94 4.0 10.0 0.00 0.00 0.00 50 1015.2
20260905180100 92 173 3.0 12.0 0.00 0.00 0.00 54 1015.3
20260905175550 91 160 3.0 12.0 0.00 0.00 0.00 51 1015.5
20260905175050 92 162 5.0 12.0 0.00 0.00 0.00 50 1015.7
20260905174556 91 42 2.0 9.0 0.00 0.00 0.00 55 1015.7
20260905174051 90 197 3.0 9.0 0.00 0.00 0.00 57 1015.7
20260905173550 89 182 2.0 8.0 0.00 0.00 0.00 55 1015.8
20260905173111 89 205 3.0 12.0 0.00 0.00 0.00 56 1015.9
20260905172550 89 155 3.0 12.0 0.00 0.00 0.00 56 1016.0
20260905172053 90 182 3.0 7.0 0.00 0.00 0.00 56 1016.0
20260905171608 89 205 3.0 9.0 0.00 0.00 0.00 58 1016.1
20260905171049 89 170 3.0 11.0 0.00 0.00 0.00 57 1016.1
20260905170550 89 141 3.0 11.0 0.00 0.00 0.00 58 1016.1
20260905170055 89 183 3.0 8.0 0.00 0.00 0.00 59 1016.2
20260905165550 90 150 4.0 9.0 0.00 0.00 0.00 54 1016.2
20260905165046 90 218 4.0 9.0 0.00 0.00 0.00 55 1016.2
20260905164603 88 123 3.0 9.0 0.00 0.00 0.00 60 1016.3
20260905164047 88 184 3.0 9.0 0.00 0.00 0.00 61 1016.3
20260905163546 87 200 3.0 8.0 0.00 0.00 0.00 64 1016.3
20260905163111 87 200 3.0 8.0 0.00 0.00 0.00 65 1016.3
20260905162550 87 254 3.0 7.0 0.00 0.00 0.00 65 1016.3
20260905162050 87 215 3.0 10.0 0.00 0.00 0.00 66 1016.3
20260905161606 87 113 5.0 10.0 0.00 0.00 0.00 66 1016.3
20260905161047 87 175 6.0 10.0 0.00 0.00 0.00 64 1016.4
20260905160549 87 122 3.0 9.0 0.00 0.00 0.00 68 1016.3
20260905160107 86 253 3.0 9.0 0.00 0.00 0.00 69 1016.4
20260905155549 85 221 3.0 9.0 0.00 0.00 0.00 70 1016.4
20260905155051 85 209 3.0 8.0 0.00 0.00 0.00 70 1016.3
20260905154615 86 180 4.0 9.0 0.00 0.00 0.00 69 1016.3
20260905154048 86 250 4.0 10.0 0.00 0.00 0.00 71 1016.3
20260905153549 85 146 5.0 10.0 0.00 0.00 0.00 72 1016.2
20260905153114 85 205 3.0 8.0 0.00 0.00 0.00 72 1016.2
20260905152547 84 150 4.0 9.0 0.00 0.00 0.00 73 1016.3
20260905152050 84 183 3.0 9.0 0.00 0.00 0.00 75 1016.3
20260905151613 83 180 3.0 9.0 0.00 0.00 0.00 75 1016.3
20260905151047 83 239 2.0 11.0 0.00 0.00 0.00 75 1016.3
20260905150548 84 188 4.0 11.0 0.00 0.00 0.00 73 1016.2
20260905150104 83 272 3.0 9.0 0.00 0.00 0.00 75 1016.2
20260905145547 83 196 4.0 8.0 0.00 0.00 0.00 76 1016.1
20260905145047 83 221 2.0 8.0 0.00 0.00 0.00 77 1016.1
20260905144609 83 241 3.0 10.0 0.00 0.00 0.00 78 1016.1
20260905144046 83 176 3.0 10.0 0.00 0.00 0.00 78 1016.1
20260905143548 83 173 2.0 5.0 0.00 0.00 0.00 80 1016.1
20260905143105 81 150 2.0 6.0 0.00 0.00 0.00 82 1016.2
20260905142547 80 205 2.0 6.0 0.00 0.00 0.00 84 1016.1
20260905142048 80 182 2.0 7.0 0.00 0.00 0.00 85 1016.2
20260905141558 80 158 3.0 7.0 0.00 0.00 0.00 86 1016.1
20260905141052 79 212 3.0 7.0 0.00 0.00 0.00 88 1016.0
20260905140551 79 225 2.0 5.0 0.00 0.00 0.00 89 1015.9
20260905135546 78 166 3.0 8.0 0.00 0.00 0.00 93 1015.9
20260905135047 77 143 3.0 7.0 0.00 0.00 0.00 93 1015.9
20260905134602 77 158 2.0 5.0 0.00 0.00 0.00 94 1015.8
20260905134047 76 138 1.0 5.0 0.00 0.00 0.00 94 1015.8
20260905133548 75 144 0.0 2.0 0.00 0.00 0.00 94 1015.8
20260905133101 75 0 0.0 1.0 0.00 0.00 0.00 93 1015.8
20260905132549 74 0 0.0 0.0 0.00 0.00 0.00 93 1015.8
20260905132047 74 0 0.0 0.0 0.00 0.00 0.00 93 1015.8
20260905131603 73 0 0.0 0.0 0.00 0.00 0.00 93 1015.7
20260905131048 73 0 0.0 0.0 0.00 0.00 0.00 93 1015.6
20260905130548 73 0 0.0 0.0 0.00 0.00 0.00 92 1015.5
20260905130053 73 0 0.0 0.0 0.00 0.00 0.00 92 1015.4
20260905125549 73 0 0.0 0.0 0.00 0.00 0.00 92 1015.4
20260905125046 72 0 0.0 0.0 0.00 0.00 0.00 92 1015.3
20260905124550 73 0 0.0 0.0 0.00 0.00 0.00 92 1015.1
20260905124049 73 0 0.0 0.0 0.00 0.00 0.00 92 1015.1
20260905123550 73 0 0.0 0.0 0.00 0.00 0.00 92 1015.1
20260905123102 73 0 0.0 0.0 0.00 0.00 0.00 92 1015.0
20260905122553 73 0 0.0 0.0 0.00 0.00 0.00 91 1015.0
20260905122049 73 0 0.0 0.0 0.00 0.00 0.00 91 1014.8
20260905121601 73 0 0.0 0.0 0.00 0.00 0.00 91 1014.8
20260905121048 73 0 0.0 0.0 0.00 0.00 0.00 91 1014.8
20260905120549 73 0 0.0 0.0 0.00 0.00 0.00 91 1014.7
20260905120054 73 0 0.0 0.0 0.00 0.00 0.00 91 1014.8
20260905115549 74 0 0.0 0.0 0.00 0.00 0.00 91 1014.7
20260905115050 74 0 0.0 0.0 0.00 0.00 0.00 92 1014.8
20260905114559 74 0 0.0 0.0 0.00 0.00 0.00 91 1014.9
20260905114052 74 0 0.0 0.0 0.00 0.00 0.00 91 1014.8
20260905113549 74 0 0.0 0.0 0.00 0.00 0.00 92 1014.8
20260905113056 74 0 0.0 0.0 0.00 0.00 0.00 91 1014.7
20260905112549 74 0 0.0 0.0 0.00 0.00 0.00 91 1014.6
20260905112048 74 0 0.0 0.0 0.00 0.00 0.00 91 1014.6
20260905111641 74 0 0.0 0.0 0.00 0.00 0.00 91 1014.6
20260905111047 74 0 0.0 0.0 0.00 0.00 0.00 91 1014.6
20260905110550 74 0 0.0 0.0 0.00 0.00 0.00 90 1014.5
20260905110052 74 0 0.0 0.0 0.00 0.00 0.00 90 1014.5
20260905105550 74 0 0.0 0.0 0.00 0.00 0.00 90 1014.5
20260905105050 74 0 0.0 0.0 0.00 0.00 0.00 90 1014.4
20260905104604 74 0 0.0 0.0 0.00 0.00 0.00 90 1014.4
20260905104053 74 0 0.0 0.0 0.00 0.00 0.00 89 1014.4
20260905103550 74 0 0.0 0.0 0.00 0.00 0.00 89 1014.4
20260905103104 74 0 0.0 0.0 0.00 0.00 0.00 89 1014.3
20260905102546 74 0 0.0 0.0 0.00 0.00 0.00 89 1014.2
20260905102046 74 0 0.0 0.0 0.00 0.00 0.00 89 1014.3
20260905101605 74 0 0.0 0.0 0.00 0.00 0.00 89 1014.4
20260905101051 75 0 0.0 0.0 0.00 0.00 0.00 89 1014.3
20260905100550 75 0 0.0 0.0 0.00 0.00 0.00 88 1014.3
20260905100105 75 0 0.0 0.0 0.00 0.00 0.00 88 1014.3
20260905095546 75 0 0.0 0.0 0.00 0.00 0.00 88 1014.4
20260905095050 75 0 0.0 0.0 0.00 0.00 0.00 88 1014.2
20260905094601 75 0 0.0 0.0 0.00 0.00 0.00 88 1014.3
20260905094051 75 0 0.0 0.0 0.00 0.00 0.00 88 1014.3
20260905093550 75 0 0.0 0.0 0.00 0.00 0.00 88 1014.3
20260905093101 75 0 0.0 0.0 0.00 0.00 0.00 87 1014.3
20260905092550 75 0 0.0 0.0 0.00 0.00 0.00 87 1014.3
20260905092050 75 0 0.0 0.0 0.00 0.00 0.00 87 1014.3
20260905091602 75 0 0.0 0.0 0.00 0.00 0.00 87 1014.4
20260905091051 76 0 0.0 0.0 0.00 0.00 0.00 87 1014.4
20260905090554 76 0 0.0 0.0 0.00 0.00 0.00 86 1014.4
20260905090057 76 0 0.0 0.0 0.00 0.00 0.00 86 1014.5
20260905085547 76 0 0.0 0.0 0.00 0.00 0.00 86 1014.5
20260905085050 76 0 0.0 0.0 0.00 0.00 0.00 86 1014.5
20260905084606 76 0 0.0 0.0 0.00 0.00 0.00 86 1014.4
20260905084048 76 0 0.0 0.0 0.00 0.00 0.00 86 1014.5
20260905083555 76 0 0.0 0.0 0.00 0.00 0.00 86 1014.6
20260905083100 76 0 0.0 0.0 0.00 0.00 0.00 86 1014.5
20260905082550 76 0 0.0 0.0 0.00 0.00 0.00 86 1014.5
20260905082046 76 0 0.0 0.0 0.00 0.00 0.00 86 1014.6
20260905081601 76 0 0.0 0.0 0.00 0.00 0.00 85 1014.6
20260905081046 76 0 0.0 1.0 0.00 0.00 0.00 85 1014.7
20260905080547 76 0 0.0 1.0 0.00 0.00 0.00 85 1014.7
20260905080117 76 144 0.0 1.0 0.00 0.00 0.00 85 1014.7
20260905075550 77 0 0.0 2.0 0.00 0.00 0.00 85 1014.7
20260905075049 77 0 0.0 2.0 0.00 0.00 0.00 85 1014.6
20260905074554 77 0 0.0 2.0 0.00 0.00 0.00 85 1014.7
20260905074046 77 144 0.0 2.0 0.00 0.00 0.00 85 1014.8
20260905073546 77 0 0.0 0.0 0.00 0.00 0.00 84 1015.0
20260905073056 77 0 0.0 0.0 0.00 0.00 0.00 84 1015.0
20260905072547 77 0 0.0 2.0 0.00 0.00 0.00 84 1015.0
20260905072047 77 0 0.0 3.0 0.00 0.00 0.00 84 1015.0
20260905071559 77 153 0.0 3.0 0.00 0.00 0.00 84 1015.0
20260905071109 77 146 1.0 5.0 0.00 0.00 0.00 84 1015.1
20260905070549 77 0 1.0 5.0 0.00 0.00 0.00 84 1015.1
20260905065551 77 148 1.0 5.0 0.00 0.00 0.00 83 1015.1
20260905065046 78 165 0.0 4.0 0.00 0.00 0.00 83 1015.1
20260905064558 78 153 1.0 4.0 0.00 0.00 0.00 83 1015.1
20260905064047 78 121 1.0 4.0 0.00 0.00 0.00 83 1015.2
20260905063546 78 167 1.0 4.0 0.00 0.00 0.00 82 1015.3
20260905063055 78 144 0.0 5.0 0.00 0.00 0.00 82 1015.3
20260905062546 78 146 2.0 5.0 0.00 0.00 0.00 82 1015.3
20260905062049 78 159 1.0 3.0 0.00 0.00 0.00 82 1015.3
20260905061603 78 160 1.0 5.0 0.00 0.00 0.00 82 1015.3
20260905061045 78 153 1.0 5.0 0.00 0.00 0.00 81 1015.2
20260905060546 78 134 1.0 5.0 0.00 0.00 0.00 81 1015.2
20260905060105 78 147 1.0 4.0 0.00 0.00 0.00 81 1015.2
20260905055546 78 144 1.0 4.0 0.00 0.00 0.00 81 1015.2
20260905055050 78 159 1.0 4.0 0.00 0.00 0.00 81 1015.1
20260905054558 78 167 1.0 4.0 0.00 0.00 0.00 81 1015.1
20260905054046 78 0 2.0 6.0 0.00 0.00 0.00 80 1015.2
20260905053547 78 154 1.0 6.0 0.00 0.00 0.00 80 1015.3
20260905053108 78 150 1.0 6.0 0.00 0.00 0.00 80 1015.2
20260905052549 78 0 2.0 6.0 0.00 0.00 0.00 80 1015.1
20260905052046 79 141 1.0 6.0 0.00 0.00 0.00 80 1015.0
20260905051558 79 132 1.0 5.0 0.00 0.00 0.00 80 1015.1
20260905051046 79 153 1.0 5.0 0.00 0.00 0.00 79 1015.1
20260905050546 79 132 1.0 4.0 0.00 0.00 0.00 79 1015.2
20260905050109 79 136 1.0 4.0 0.00 0.00 0.00 79 1015.3
20260905045548 79 0 0.0 3.0 0.00 0.00 0.00 78 1015.4
20260905045050 79 136 0.0 3.0 0.00 0.00 0.00 78 1015.4
20260905044558 79 146 0.0 3.0 0.00 0.00 0.00 77 1015.3
20260905044046 79 155 0.0 3.0 0.00 0.00 0.00 77 1015.3
20260905043550 79 138 0.0 3.0 0.00 0.00 0.00 77 1015.3
20260905043059 79 136 0.0 2.0 0.00 0.00 0.00 76 1015.3
20260905042546 79 0 0.0 2.0 0.00 0.00 0.00 76 1015.5
20260905042046 79 140 0.0 2.0 0.00 0.00 0.00 75 1015.4
20260905041606 79 0 0.0 3.0 0.00 0.00 0.00 75 1015.4
20260905041046 79 0 0.0 3.0 0.00 0.00 0.00 74 1015.3
20260905040550 80 0 0.0 2.0 0.00 0.00 0.00 74 1015.3
20260905040104 80 133 0.0 2.0 0.00 0.00 0.00 73 1015.2
20260905035552 80 0 0.0 2.0 0.00 0.00 0.00 73 1015.3
20260905035050 80 0 0.0 1.0 0.00 0.00 0.00 73 1015.0
20260905034617 80 0 0.0 2.0 0.00 0.00 0.00 72 1015.1
20260905034047 80 98 0.0 2.0 0.00 0.00 0.00 72 1015.1
20260905033546 80 0 0.0 2.0 0.00 0.00 0.00 72 1015.1
20260905033118 80 0 0.0 4.0 0.00 0.00 0.00 71 1015.1
20260905032546 80 0 1.0 4.0 0.00 0.00 0.00 71 1014.9
20260905032049 80 0 0.0 4.0 0.00 0.00 0.00 71 1015.0
20260905031613 80 0 0.0 4.0 0.00 0.00 0.00 70 1015.0
20260905031045 80 0 0.0 4.0 0.00 0.00 0.00 70 1015.0
20260905030548 80 132 0.0 4.0 0.00 0.00 0.00 69 1015.0
20260905030100 80 126 0.0 4.0 0.00 0.00 0.00 69 1014.8
20260905025546 80 0 0.0 3.0 0.00 0.00 0.00 69 1014.9